Location: Newark
(13.8117°N, 3.6025°W)
Time: 19:34:28
(UTC+00:00)

Explorer 11/Cluster Stage 4 - Pass Details

Date: 25 August 2019
Orbit: 467 x 1260 km, 28.8° (Epoch: 23 September)

Event Time Altitude Azimuth Distance (km) Brightness Sun altitude
Rises 12:47:08 0° 299° (WNW) 4,187 10.4 81.9°
Reaches altitude 10° 12:50:34 10° 311° (NW) 3,230 9.9 81.2°
Maximum altitude 12:57:27 29° 7° (N) 2,086 9.1 79.6°
Drops below altitude 10° 13:03:54 10° 64° (ENE) 3,016 9.6 78.0°
Sets 13:06:59 0° 76° (ENE) 3,869 10.0 77.3°
